�N����,����,�~����,�C��,���x,�C��,����,���ϕ���,�ő�u�ԕ���,�ő厞����,���˗�,�I�_���x,�n�����x,�ő啗���N��,DTYPE
"23/11/01","00:10",0.0,11.9,85.8,1016.6,323.5,2.6,3.5,315.2,0.00,9.6,15.5,"00:03:02",1
"23/11/01","00:20",0.0,11.9,86.1,1016.8,310.4,2.1,2.9,333.1,0.00,9.7,15.6,"00:19:36",1
"23/11/01","00:30",0.0,11.5,86.1,1017.1,303.1,1.3,2.7,325.9,0.00,9.3,15.4,"00:22:34",1
"23/11/01","00:40",0.0,10.8,86.8,1016.8,291.6,1.2,1.8,306.4,0.00,8.7,15.5,"00:33:04",1
"23/11/01","00:50",0.0,10.4,87.4,1016.6,292.6,1.2,1.7,304.8,0.00,8.4,15.3,"00:44:16",1
"23/11/01","01:00",0.0,10.1,88.1,1016.6,289.3,1.2,1.9,303.1,0.00,8.3,15.2,"00:53:12",1
"23/11/01","01:10",0.0,9.7,88.4,1016.6,303.6,0.5,1.0,285.5,0.00,7.9,15.3,"01:00:56",1
"23/11/01","01:20",0.0,9.5,88.9,1016.6,316.0,1.8,2.9,335.2,0.00,7.8,15.2,"01:16:08",1
"23/11/01","01:30",0.0,9.2,89.4,1016.6,292.3,1.6,2.4,314.3,0.00,7.6,15.2,"01:20:08",1
"23/11/01","01:40",0.0,8.8,89.9,1016.6,292.6,1.3,1.8,307.5,0.00,7.3,15.2,"01:30:32",1
"23/11/01","01:50",0.0,8.8,90.2,1016.6,296.7,1.7,2.0,313.5,0.00,7.3,15.1,"01:48:48",1
"23/11/01","02:00",0.0,8.8,90.6,1016.4,309.3,2.0,2.6,320.7,0.00,7.4,15.2,"01:53:28",1
"23/11/01","02:10",0.0,8.4,90.9,1016.4,288.6,1.5,2.0,307.5,0.00,7.0,15.0,"02:06:56",1
"23/11/01","02:20",0.0,8.4,91.3,1016.4,290.3,1.3,1.7,295.3,0.00,7.1,15.1,"02:14:48",1
"23/11/01","02:30",0.0,8.6,91.8,1016.8,311.9,2.1,3.2,321.9,0.00,7.4,14.8,"02:25:28",1
"23/11/01","02:40",0.0,8.8,92.0,1016.6,293.9,1.2,1.9,340.9,0.00,7.6,14.8,"02:30:24",1
"23/11/01","02:50",0.0,8.6,92.4,1016.6,282.4,1.5,2.2,264.7,0.00,7.5,14.8,"02:44:00",1
"23/11/01","03:00",0.0,8.7,92.7,1016.4,291.8,1.1,2.2,314.8,0.00,7.6,14.7,"02:50:16",1
"23/11/01","03:10",0.0,8.6,93.0,1016.1,304.4,2.0,2.6,315.0,0.00,7.6,14.7,"03:01:20",1
"23/11/01","03:20",0.0,8.6,93.4,1016.4,301.2,1.7,2.4,263.6,0.00,7.6,14.7,"03:19:04",1
"23/11/01","03:30",0.0,8.2,93.6,1016.4,290.4,1.6,1.8,294.8,0.00,7.3,14.7,"03:24:32",1
"23/11/01","03:40",0.0,8.2,93.9,1016.1,304.4,2.3,2.9,317.6,0.00,7.3,14.4,"03:38:32",1
"23/11/01","03:50",0.0,7.9,94.2,1016.1,303.2,2.2,2.7,314.5,0.00,7.1,14.7,"03:42:08",1
"23/11/01","04:00",0.0,7.7,94.4,1016.1,293.7,1.7,1.9,283.6,0.00,6.9,14.3,"03:56:32",1
"23/11/01","04:10",0.0,8.4,94.6,1015.9,295.6,2.1,2.9,314.6,0.00,7.6,14.6,"04:04:32",1
"23/11/01","04:20",0.0,8.3,94.7,1016.1,294.2,1.8,2.2,312.3,0.00,7.5,14.4,"04:14:32",1
"23/11/01","04:30",0.0,8.7,94.8,1016.1,285.0,2.0,2.4,272.0,0.00,8.0,14.3,"04:23:04",1
"23/11/01","04:40",0.0,8.8,95.0,1016.4,282.1,1.7,2.0,296.0,0.00,8.1,14.3,"04:30:32",1
"23/11/01","04:50",0.0,8.5,95.0,1016.6,297.9,1.8,2.5,313.5,0.00,7.8,14.4,"04:46:08",1
"23/11/01","05:00",0.0,8.2,95.2,1016.8,304.2,2.1,2.5,313.4,0.00,7.5,14.3,"04:55:28",1
"23/11/01","05:10",0.0,7.8,95.4,1016.6,297.2,1.3,1.9,308.5,0.00,7.2,14.2,"05:00:08",1
"23/11/01","05:20",0.0,7.6,95.8,1016.4,304.2,2.1,2.8,319.3,0.00,7.0,14.4,"05:19:12",1
"23/11/01","05:30",0.0,7.6,95.9,1016.8,307.0,2.3,2.7,310.8,0.00,7.0,14.1,"05:25:28",1
"23/11/01","05:40",0.0,7.3,96.0,1016.8,296.1,1.3,2.1,305.7,0.00,6.7,14.2,"05:31:20",1
"23/11/01","05:50",0.0,7.0,96.2,1016.6,297.0,1.3,1.8,297.8,0.00,6.5,14.1,"05:40:02",1
"23/11/01","06:00",0.0,7.1,96.5,1016.8,314.2,2.6,3.1,322.1,0.00,6.6,14.2,"05:58:40",1
"23/11/01","06:10",0.0,7.1,96.5,1017.1,303.3,2.1,3.2,320.1,0.00,6.6,14.0,"06:01:36",1
"23/11/01","06:20",0.0,7.2,96.6,1017.1,302.0,1.8,2.2,308.2,0.00,6.7,14.0,"06:15:44",1
"23/11/01","06:30",0.0,7.4,96.8,1017.5,301.1,1.8,2.2,315.6,0.00,7.0,14.0,"06:27:20",1
"23/11/01","06:40",0.0,7.8,96.8,1017.5,271.9,1.7,1.9,272.9,0.00,7.4,13.8,"06:31:04",1
"23/11/01","06:50",0.0,8.0,96.7,1017.3,314.3,2.0,2.1,318.8,0.00,7.5,14.0,"06:49:02",1
"23/11/01","07:00",0.0,8.2,96.9,1017.3,298.7,1.2,1.6,295.0,0.00,7.8,13.9,"06:54:34",1
"23/11/01","07:10",0.0,9.1,96.9,1017.8,304.1,0.7,1.2,315.5,0.01,8.7,13.6,"07:00:24",1
"23/11/01","07:20",0.0,9.7,96.7,1017.8,300.6,1.1,1.6,311.7,0.02,9.2,13.7,"07:18:08",1
"23/11/01","07:30",0.0,10.1,96.8,1018.0,318.1,1.1,1.6,322.4,0.04,9.7,13.9,"07:20:24",1
"23/11/01","07:40",0.0,10.9,96.7,1018.0,318.7,0.5,1.0,316.0,0.05,10.4,13.7,"07:34:00",1
"23/11/01","07:50",0.0,11.7,96.6,1018.0,297.5,0.1,0.6,295.3,0.07,11.2,13.9,"07:47:30",1
"23/11/01","08:00",0.0,12.1,96.2,1018.0,266.9,0.3,1.1,250.8,0.09,11.6,13.7,"07:58:44",1
"23/11/01","08:10",0.0,13.1,96.4,1018.2,266.0,0.5,1.3,302.7,0.11,12.6,13.8,"08:09:02",1
"23/11/01","08:20",0.0,14.0,96.0,1018.2,324.9,0.6,1.6,328.8,0.13,13.4,13.8,"08:13:04",1
"23/11/01","08:30",0.0,13.6,95.0,1018.2,257.9,0.5,1.0,238.2,0.15,12.9,13.9,"08:24:00",1
"23/11/01","08:40",0.0,14.5,94.9,1018.2,216.8,0.3,1.2,241.7,0.18,13.7,13.7,"08:30:16",1
"23/11/01","08:50",0.0,14.7,94.0,1018.5,261.9,0.6,1.4,295.3,0.20,13.8,13.7,"08:49:52",1
"23/11/01","09:00",0.0,14.7,92.0,1018.0,255.5,0.8,1.3,233.2,0.22,13.5,13.9,"08:56:16",1
"23/11/01","09:10",0.0,15.6,89.5,1018.7,263.9,0.7,1.4,245.5,0.24,13.9,13.8,"09:06:24",1
"23/11/01","09:20",0.0,16.0,85.9,1018.5,216.6,0.7,1.3,232.4,0.26,13.7,13.9,"09:12:08",1
"23/11/01","09:30",0.0,16.6,79.9,1018.0,177.9,0.7,1.9,220.9,0.28,13.2,14.0,"09:28:56",1
"23/11/01","09:40",0.0,17.5,75.8,1017.5,173.8,0.6,1.9,120.5,0.30,13.2,14.1,"09:34:16",1
"23/11/01","09:50",0.0,18.3,71.4,1017.8,221.3,0.6,1.3,161.5,0.31,13.1,14.2,"09:43:36",1
"23/11/01","10:00",0.0,18.4,68.3,1017.5,219.0,1.0,2.2,231.9,0.33,12.5,14.3,"09:52:00",1
"23/11/01","10:10",0.0,18.8,68.0,1017.3,209.6,1.0,2.2,222.2,0.34,12.8,14.3,"10:03:36",1
"23/11/01","10:20",0.0,18.7,64.7,1016.8,204.5,1.1,2.1,218.4,0.36,12.0,14.5,"10:13:36",1
"23/11/01","10:30",0.0,19.4,64.7,1016.6,223.0,1.1,2.5,234.3,0.36,12.6,14.4,"10:20:56",1
"23/11/01","10:40",0.0,19.7,62.8,1016.6,212.3,1.1,2.5,229.2,0.37,12.5,14.7,"10:38:00",1
"23/11/01","10:50",0.0,19.4,63.7,1016.1,221.2,1.8,3.5,207.0,0.38,12.4,14.7,"10:46:56",1
"23/11/01","11:00",0.0,20.3,62.8,1016.1,192.4,0.8,1.8,122.3,0.39,13.0,14.9,"10:58:40",1
"23/11/01","11:10",0.0,20.4,62.5,1015.9,231.4,1.1,3.1,235.6,0.39,13.0,14.9,"11:01:20",1
"23/11/01","11:20",0.0,21.0,60.6,1015.6,153.6,0.8,2.1,191.2,0.40,13.1,15.0,"11:16:00",1
"23/11/01","11:30",0.0,21.2,60.0,1015.4,121.3,1.1,2.0,129.3,0.40,13.2,15.1,"11:20:24",1
"23/11/01","11:40",0.0,20.8,60.3,1015.2,213.3,1.6,3.6,222.4,0.40,12.9,15.2,"11:33:44",1
"23/11/01","11:50",0.0,21.6,59.8,1014.7,167.7,0.8,1.9,181.9,0.40,13.5,15.4,"11:43:44",1
"23/11/01","12:00",0.0,22.0,58.1,1014.5,210.1,1.0,2.4,229.3,0.39,13.4,15.5,"11:58:48",1
"23/11/01","12:10",0.0,21.7,59.1,1014.2,205.6,1.6,3.7,124.1,0.39,13.4,15.5,"12:03:12",1
"23/11/01","12:20",0.0,22.1,58.2,1013.5,168.5,1.2,2.1,216.9,0.38,13.6,15.3,"12:14:32",1
"23/11/01","12:30",0.0,22.4,57.1,1013.8,201.8,1.0,1.8,199.3,0.37,13.5,15.7,"12:28:40",1
"23/11/01","12:40",0.0,22.7,56.2,1013.5,275.1,1.1,2.6,244.4,0.36,13.6,16.0,"12:39:12",1
"23/11/01","12:50",0.0,22.8,55.3,1013.0,220.1,1.1,2.6,162.3,0.36,13.4,16.0,"12:42:56",1
"23/11/01","13:00",0.0,23.1,55.8,1012.8,172.1,1.1,2.7,160.3,0.35,13.8,16.0,"12:56:32",1
"23/11/01","13:10",0.0,23.2,54.2,1012.8,163.1,1.0,2.2,202.9,0.34,13.5,16.2,"13:08:16",1
"23/11/01","13:20",0.0,23.4,53.0,1012.8,171.8,1.1,2.7,202.3,0.33,13.3,16.2,"13:15:04",1
"23/11/01","13:30",0.0,23.2,53.8,1012.3,208.7,1.5,3.1,232.8,0.32,13.4,16.2,"13:24:08",1
"23/11/01","13:40",0.0,23.2,52.7,1012.6,190.3,1.3,3.5,216.9,0.30,13.1,16.6,"13:37:04",1
"23/11/01","13:50",0.0,23.5,52.4,1012.6,196.1,1.2,2.6,204.2,0.29,13.2,16.5,"13:49:12",1
"23/11/01","14:00",0.0,23.6,51.3,1012.3,211.8,1.3,2.9,237.4,0.27,13.0,16.6,"13:52:56",1
"23/11/01","14:10",0.0,24.0,51.1,1012.1,221.8,1.0,2.0,229.4,0.25,13.3,16.7,"14:00:40",1
"23/11/01","14:20",0.0,23.8,48.6,1012.1,223.8,1.6,3.3,196.0,0.23,12.4,16.8,"14:11:52",1
"23/11/01","14:30",0.0,24.1,49.2,1011.9,133.6,1.0,3.7,156.0,0.21,12.8,16.8,"14:22:32",1
"23/11/01","14:40",0.0,23.8,49.2,1012.1,192.9,1.2,4.1,229.2,0.19,12.6,16.9,"14:38:40",1
"23/11/01","14:50",0.0,23.7,50.6,1012.1,209.9,1.7,4.9,231.2,0.17,12.9,17.0,"14:40:24",1
"23/11/01","15:00",0.0,23.7,50.5,1012.3,207.4,1.2,2.5,230.6,0.15,12.9,17.0,"14:58:08",1
"23/11/01","15:10",0.0,23.3,51.4,1012.3,184.5,1.8,4.5,230.8,0.13,12.8,16.7,"15:02:32",1
"23/11/01","15:20",0.0,23.0,51.8,1012.6,191.9,2.1,4.3,226.5,0.11,12.6,17.1,"15:16:32",1
"23/11/01","15:30",0.0,23.1,52.6,1012.3,186.2,1.5,5.2,221.0,0.09,12.9,17.2,"15:23:04",1
"23/11/01","15:40",0.0,22.9,53.2,1012.3,195.6,1.7,3.9,207.1,0.07,12.9,17.1,"15:38:08",1
"23/11/01","15:50",0.0,22.5,55.3,1012.6,199.5,1.6,3.6,207.3,0.05,13.1,17.3,"15:47:36",1
"23/11/01","16:00",0.0,22.3,56.4,1012.8,205.1,2.0,5.7,227.8,0.04,13.3,17.2,"15:56:08",1
"23/11/01","16:10",0.0,21.9,58.1,1012.3,213.2,1.7,3.5,176.2,0.02,13.3,17.2,"16:03:28",1
"23/11/01","16:20",0.0,21.6,59.6,1012.8,220.7,1.8,4.0,222.4,0.01,13.4,17.2,"16:17:04",1
"23/11/01","16:30",0.0,21.3,61.0,1013.3,235.6,1.2,2.2,219.7,0.00,13.5,17.2,"16:20:48",1
"23/11/01","16:40",0.0,20.7,62.5,1013.3,286.2,0.6,1.7,233.4,0.00,13.3,17.1,"16:37:36",1
"23/11/01","16:50",0.0,19.9,64.7,1013.3,319.4,0.3,1.2,333.2,0.00,13.1,17.1,"16:43:36",1
"23/11/01","17:00",0.0,18.9,68.2,1013.3,342.9,1.0,1.7,327.9,0.00,13.0,17.2,"16:55:04",1
"23/11/01","17:10",0.0,18.4,70.5,1013.5,333.6,0.8,1.6,326.1,0.00,13.0,17.1,"17:07:12",1
"23/11/01","17:20",0.0,17.9,72.3,1013.3,333.2,1.3,1.9,335.1,0.00,12.9,17.0,"17:13:20",1
"23/11/01","17:30",0.0,17.5,74.3,1013.8,316.8,1.5,2.1,319.3,0.00,12.9,17.2,"17:23:44",1
"23/11/01","17:40",0.0,17.0,76.4,1014.0,309.7,1.3,2.2,316.7,0.00,12.9,16.7,"17:39:36",1
"23/11/01","17:50",0.0,16.7,78.2,1014.0,308.9,1.5,2.0,327.0,0.00,12.9,16.7,"17:40:08",1
"23/11/01","18:00",0.0,16.4,79.5,1013.8,304.1,1.5,2.4,318.7,0.00,12.9,16.8,"17:57:36",1
"23/11/01","18:10",0.0,16.3,80.3,1013.8,286.8,1.5,2.5,311.8,0.00,12.9,16.8,"18:07:52",1
"23/11/01","18:20",0.0,16.1,80.9,1013.5,290.8,1.5,2.2,317.2,0.00,12.9,16.8,"18:10:16",1
"23/11/01","18:30",0.0,15.9,81.6,1014.0,281.4,1.3,2.0,313.3,0.00,12.8,16.6,"18:25:28",1
"23/11/01","18:40",0.0,15.7,82.3,1013.8,277.8,1.3,1.8,271.2,0.00,12.7,16.7,"18:34:56",1
"23/11/01","18:50",0.0,15.4,82.9,1014.0,314.0,1.5,1.9,336.1,0.00,12.6,16.6,"18:49:14",1
"23/11/01","19:00",0.0,15.1,83.8,1014.0,317.1,1.8,3.1,322.0,0.00,12.4,16.4,"18:55:36",1
"23/11/01","19:10",0.0,15.1,84.1,1014.5,297.9,1.5,2.5,336.0,0.00,12.5,16.5,"19:04:48",1
"23/11/01","19:20",0.0,14.9,84.5,1014.5,284.9,1.2,1.7,292.6,0.00,12.4,16.6,"19:16:32",1
"23/11/01","19:30",0.0,14.6,84.8,1014.2,308.0,1.3,1.9,326.7,0.00,12.1,16.4,"19:20:40",1
"23/11/01","19:40",0.0,14.0,85.5,1014.7,272.7,1.1,1.4,318.9,0.00,11.6,16.4,"19:31:28",1
"23/11/01","19:50",0.0,13.9,86.1,1014.9,299.0,1.3,2.1,319.7,0.00,11.7,16.2,"19:45:30",1
"23/11/01","20:00",0.0,13.2,86.6,1014.9,286.0,0.7,1.4,300.1,0.00,11.1,16.3,"19:58:42",1
"23/11/01","20:10",0.0,13.3,87.6,1014.7,316.2,1.7,2.1,320.8,0.00,11.3,16.4,"20:02:52",1
"23/11/01","20:20",0.0,12.9,87.9,1014.7,300.5,1.3,2.0,331.3,0.00,11.0,16.2,"20:10:16",1
"23/11/01","20:30",0.0,12.4,88.6,1014.7,292.8,1.2,1.6,316.5,0.00,10.6,16.1,"20:20:16",1
"23/11/01","20:40",0.0,12.8,89.2,1014.5,303.8,1.8,2.1,303.0,0.00,11.1,16.0,"20:30:46",1
"23/11/01","20:50",0.0,12.7,89.4,1014.9,315.2,2.0,2.2,328.4,0.00,11.0,15.9,"20:41:46",1
"23/11/01","21:00",0.0,12.3,89.9,1014.9,300.9,1.6,2.2,340.3,0.00,10.7,16.1,"20:58:52",1
"23/11/01","21:10",0.0,11.9,90.1,1014.9,299.8,1.3,2.2,321.1,0.00,10.4,15.9,"21:00:08",1
"23/11/01","21:20",0.0,12.1,90.7,1014.7,302.0,1.8,2.4,314.3,0.00,10.7,15.9,"21:11:16",1
"23/11/01","21:30",0.0,12.7,90.9,1014.9,310.7,2.5,3.5,330.5,0.00,11.3,15.9,"21:24:10",1
"23/11/01","21:40",0.0,13.1,90.7,1014.9,298.3,1.8,2.8,320.3,0.00,11.7,16.0,"21:32:40",1
"23/11/01","21:50",0.0,12.8,90.6,1014.9,283.9,1.0,2.1,302.8,0.00,11.3,15.7,"21:46:10",1
"23/11/01","22:00",0.0,12.4,90.7,1014.9,312.9,2.1,2.5,323.1,0.00,11.0,15.7,"21:56:26",1
"23/11/01","22:10",0.0,12.0,90.8,1015.2,311.5,2.0,2.2,318.3,0.00,10.6,15.6,"22:02:12",1
"23/11/01","22:20",0.0,11.7,91.0,1015.2,308.6,1.5,2.1,317.6,0.00,10.3,15.7,"22:10:24",1
"23/11/01","22:30",0.0,11.4,91.3,1015.6,314.6,1.6,2.4,318.9,0.00,10.1,15.7,"22:28:06",1
"23/11/01","22:40",0.0,11.1,91.6,1015.6,303.8,1.7,2.1,321.6,0.00,9.8,15.7,"22:36:16",1
"23/11/01","22:50",0.0,11.1,91.9,1014.7,305.7,1.8,2.4,311.3,0.00,9.9,15.6,"22:41:18",1
"23/11/01","23:00",0.0,11.2,92.2,1015.6,302.7,1.8,2.4,320.7,0.00,10.0,15.5,"22:50:56",1
"23/11/01","23:10",0.0,11.5,92.3,1015.4,293.3,1.7,2.1,320.6,0.00,10.3,15.6,"23:05:58",1
"23/11/01","23:20",0.0,11.6,92.5,1015.2,301.1,1.8,2.2,316.6,0.00,10.5,15.5,"23:10:16",1
"23/11/01","23:30",0.0,11.7,92.8,1015.6,291.8,1.8,2.5,319.0,0.00,10.6,15.4,"23:28:58",1
"23/11/01","23:40",0.0,11.9,93.0,1015.4,295.2,2.0,2.5,307.5,0.00,10.8,15.4,"23:31:44",1
"23/11/01","23:50",0.0,11.9,93.1,1015.4,302.8,1.8,2.9,314.8,0.00,10.9,15.2,"23:40:20",1
"23/11/01","24:00",0.0,11.3,93.3,1015.2,311.1,2.1,2.6,323.9,0.00,10.3,15.3,"23:51:52",1
